Regional Weather Roundup
Issued by NWS

Home | Current Version | Previous Version | Text Only | Print | Product List | Glossary On
Versions: 1 2 3 4 5 6 7 8 9 10 11 12 13 14 15 16 17 18 19 20 21 22 23 24 25 26 27 28 29 30 31 32 33 34 35 36 37 38 39 40 41 42 43 44 45 46 47 48 49 50
685
ASUS43 KMKX 211210
RWRWI

WISCONSIN REGIONAL WEATHER ROUNDUP
NATIONAL WEATHER SERVICE MILWAUKEE/SULLIVAN WI
600 AM CST SAT JAN 21 2017

NOTE: "FAIR" INDICATES FEW OR NO CLOUDS BELOW 12,000 FEET WITH NO
SIGNIFICANT WEATHER AND/OR OBSTRUCTIONS TO VISIBILITY.

WIZ001-002-006>008-014>016-023>028-211300-
NORTHWEST WISCONSIN

CITY           SKY/WX    TMP DP  RH WIND       PRES   REMARKS
SUPERIOR ARPT  CLOUDY    34  34 100 CALM      29.53S
6HR MIN TEMP:  34; 6HR MAX TEMP:  35;

ASHLAND        CLOUDY    34  33  96 E3        29.55F
6HR MIN TEMP:  34; 6HR MAX TEMP:  35; 6HR PCP: TRACE;

HAYWARD        CLOUDY    35  33  92 CALM      29.50F FOG
6HR MIN TEMP:  34; 6HR MAX TEMP:  35; 6HR PCP:  0.01;

SIREN          FOG       34  34  99 E3        29.49F VSB 1
6HR MIN TEMP:  34; 6HR MAX TEMP:  35; 6HR PCP:  0.01;

CUMBERLAND     FOG       32  32 100 E5        29.49S VSB 1/2 WCI  27
RICE LAKE      FOG       34  34 100 E5        29.50F VSB 1   WCI  30
6HR MIN TEMP:  34; 6HR MAX TEMP:  34;

CHETEK         FOG       34  34 100 CALM      29.49F VSB 3/4
6HR MIN TEMP:  33; 6HR MAX TEMP:  34;

LADYSMITH      CLOUDY    35  34  99 E6        29.51F FOG     WCI  30
6HR MIN TEMP:  35; 6HR MAX TEMP:  35;

EAU CLAIRE     CLOUDY    34  34 100 NE7       29.47F FOG     WCI  28
6HR MIN TEMP:  34; 6HR MAX TEMP:  35;

MENOMONIE        N/A    N/A N/A N/A MISG        N/A
NEW RICHMOND   CLOUDY    34  34 100 E7        29.46F FOG     WCI  28
6HR MIN TEMP:  34; 6HR MAX TEMP:  34;

OSCEOLA        CLOUDY    35  35 100 E3        29.49F FOG
6HR MIN TEMP:  34; 6HR MAX TEMP:  35;

$$

WIZ003>005-009-010-017-018-211300-
NORTH CENTRAL WISCONSIN

CITY           SKY/WX    TMP DP  RH WIND       PRES   REMARKS
MANITOWISH WTR CLOUDY    32  32 100 E3        29.52F
6HR MIN TEMP:  32; 6HR MAX TEMP:  33;

ARBOR VITAE    CLOUDY    34  33  96 SE6       29.53S FOG     WCI  29
6HR MIN TEMP:  34; 6HR MAX TEMP:  37;

WOODRUFF       CLOUDY    34  33  96 SE6       29.53S FOG     WCI  29
6HR MIN TEMP:  34; 6HR MAX TEMP:  37;

RHINELANDER    CLOUDY    34  34 100 E8        29.54S WCI  27
6HR MIN TEMP:  33; 6HR MAX TEMP:  34; 6HR PCP: TRACE;

EAGLE RIVER    CLOUDY    32  32 100 E3        29.53F
6HR MIN TEMP:  32; 6HR MAX TEMP:  33;

LAND O LAKES   CLOUDY    33  33 100 SE3       29.56F
6HR MIN TEMP:  33; 6HR MAX TEMP:  34;

PHILLIPS       CLOUDY    32  32 100 E5        29.51F FOG     WCI  28
6HR MIN TEMP:  32; 6HR MAX TEMP:  33;

TOMAHAWK       CLOUDY    32  32  99 E6        29.52F FOG     WCI  27
6HR MIN TEMP:  32; 6HR MAX TEMP:  33;

MEDFORD        CLOUDY    32  32  99 E10       29.50S FOG     WCI  24
6HR MIN TEMP:  32; 6HR MAX TEMP:  32;

MERRILL        CLOUDY    33  33 100 E8          N/A  FOG     WCI  26
6HR MIN TEMP:  33; 6HR MAX TEMP:  33;

$$

WIZ029-030-035-036-043>047-211300-
CENTRAL WISCONSIN

CITY           SKY/WX    TMP DP  RH WIND       PRES   REMARKS
WAUSAU         CLOUDY    33  33 100 SE8       29.52S FOG     WCI  26
6HR MIN TEMP:  32; 6HR MAX TEMP:  33;

MOSINEE        FOG       32  32 100 E7        29.53R VSB 1/4 WCI  26
MARSHFIELD     FOG       33  32  96 E12       29.48F VSB 1/4 WCI  24
6HR MIN TEMP:  33; 6HR MAX TEMP:  33; 6HR PCP: TRACE;

STEVENS POINT  DRZL/FOG  32  32 100 NE7       29.52F VSB 1   WCI  26
6HR MIN TEMP:  32; 6HR MAX TEMP:  32;

WAUPACA        CLOUDY    36  35  96 CALM      29.53F FOG
6HR MIN TEMP:  36; 6HR MAX TEMP:  36;

WAUTOMA        CLOUDY    34  34 100 E7        29.53R FOG     WCI  28
6HR MIN TEMP:  34; 6HR MAX TEMP:  34; 6HR PCP:  0.01;

WISC RAPIDS    CLOUDY    34  34 100 E12       29.50F FOG     WCI  25
6HR MIN TEMP:  34; 6HR MAX TEMP:  34; 6HR PCP:  0.01;

CAMP DOUGLAS   FOG       34  34 100 E7        29.48S VSB 1/2 WCI  28
6HR MIN TEMP:  34; 6HR MAX TEMP:  35; 6HR PCP: TRACE;

$$

WIZ011>013-019>022-031-037>040-048>050-211300-
NORTHEAST WISCONSIN

CITY           SKY/WX    TMP DP  RH WIND       PRES   REMARKS
ANTIGO         FOG       32  32 100 E9        29.54F VSB 1/2 WCI  24
6HR MIN TEMP:  31; 6HR MAX TEMP:  32;

SHAWANO        FOG       35  33  94 NE6       29.57F VSB 1/4 WCI  30
OCONTO         CLOUDY    33  33  99 NE3       29.60S VSB 1/4
6HR MIN TEMP:  32; 6HR MAX TEMP:  33;

STURGEON BAY   LGT RAIN  36  35  96 E5        29.61S FOG     WCI  32
6HR MIN TEMP:  34; 6HR MAX TEMP:  36; 6HR PCP: TRACE;

GREEN BAY      CLOUDY    37  37 100 E5        29.57F FOG     WCI  33
6HR MIN TEMP:  35; 6HR MAX TEMP:  37; 6HR PCP:  0.01;

MANITOWOC      FOG       36  35  96 MISG      29.59F VSB 3/4
6HR MIN TEMP:  36; 6HR MAX TEMP:  37; 6HR PCP:  0.01;

APPLETON         N/A     36  36 100 E7        29.52F FOG     WCI  30
CLINTONVILLE   FOG       34  34 100 NE3       29.56F VSB 1/4
OSHKOSH        CLOUDY    35  34  96 E7        29.53F FOG     WCI  29
6HR MIN TEMP:  34; 6HR MAX TEMP:  35; 6HR PCP:  0.03;

$$

WIZ032>034-041-042-053>061-211300-
SOUTHWEST WISCONSIN

CITY           SKY/WX    TMP DP  RH WIND       PRES   REMARKS
LA CROSSE      LGT RAIN  40  36  86 NE10      29.42F WCI  33
6HR MIN TEMP:  38; 6HR MAX TEMP:  40; 6HR PCP:  0.02;

SPARTA         LGT RAIN  34  34 100 SE3       29.48S
6HR MIN TEMP:  33; 6HR MAX TEMP:  34;

VIROQUA        CLOUDY    35  35 100 E10       29.43F VSB 1/4 WCI  27
6HR MIN TEMP:  34; 6HR MAX TEMP:  35; 6HR PCP:  0.01;

BOSCOBEL       CLOUDY    37  36  96 NE5       29.46S FOG     WCI  33
6HR MIN TEMP:  37; 6HR MAX TEMP:  37; 6HR PCP:  0.02;

PRAIRIE DU CHI FOG       35  34  96 CALM      29.44S VSB 1/2
6HR MIN TEMP:  35; 6HR MAX TEMP:  37; 6HR PCP:  0.03;

PLATTEVILLE    CLOUDY    38  38 100 E7        29.44S VSB 1/4 WCI  33
6HR MIN TEMP:  36; 6HR MAX TEMP:  38;

$$

WIZ056-057-062-063-064-067-068-211300-
SOUTH CENTRAL WISCONSIN

CITY           SKY/WX    TMP DP  RH WIND       PRES   REMARKS
REEDSBURG      FOG       34  34 100 E8        29.47F VSB 1/2 WCI  27
6HR MIN TEMP:  34; 6HR MAX TEMP:  35;

BARABOO/DELLS  FOG       35  34  99 E5        29.49S VSB<1/4 WCI  30
6HR MIN TEMP:  34; 6HR MAX TEMP:  35;

LONE ROCK      CLOUDY    38  37  97 E9        29.46F FOG     WCI  31
6HR MIN TEMP:  36; 6HR MAX TEMP:  38;

MINERAL POINT  FOG       41  41 100 E8        29.44F VSB 1/4
MADISON        FOG       38  38 100 E7        29.49F VSB 3/4 WCI  33
6HR MIN TEMP:  35; 6HR MAX TEMP:  38; 6HR PCP: TRACE;

MIDDLETON      CLOUDY    38  38 100 CALM      29.48F VSB 1/4
6HR MIN TEMP:  37; 6HR MAX TEMP:  38; 6HR PCP:  0.01;

WATERTOWN      CLOUDY    37  37 100 E7        29.50F FOG     WCI  32
6HR MIN TEMP:  36; 6HR MAX TEMP:  37; 6HR PCP:  0.01;

MONROE         FOG       39  37  93 SE7       29.46S VSB 1/4 WCI  34
JANESVILLE     FOG       41  41 100 SE7       29.48F VSB 3/4
$$

WIZ051-052-058>065-066-070>072-211300-
SOUTHEAST WISCONSIN

CITY           SKY/WX    TMP DP  RH WIND       PRES   REMARKS
MILWAUKEE      FOG       40  38  93 SE5       29.54F VSB 1/4
6HR MIN TEMP:  38; 6HR MAX TEMP:  40; 6HR PCP:  0.03;

WAUKESHA       FOG       36  36 100 E5        29.53F VSB 1/4 WCI  32
MILWAUKEE/TIMM FOG       37  36  93 E3        29.53F VSB 1/4
RACINE         FOG       41  39  93 S6        29.55F VSB 1/4
6HR MIN TEMP:  38; 6HR MAX TEMP:  41; 6HR PCP:  0.01;

KENOSHA        FOG       43  43 100 SE6       29.53F VSB 1/4
6HR MIN TEMP:  38; 6HR MAX TEMP:  43; 6HR PCP:  0.01;

FOND DU LAC    CLOUDY    38  35  89 E6        29.52F FOG     WCI  33
6HR MIN TEMP:  34; 6HR MAX TEMP:  38; 6HR PCP: TRACE;

SHEBOYGAN      MIX PCPN  35  34  96 NE8       29.55F VSB 1/2 WCI  29
6HR MIN TEMP:  35; 6HR MAX TEMP:  36; 6HR PCP:  0.05;

WEST BEND      FOG       36  36 100 E3        29.53F VSB 1/4
JUNEAU         FOG       37  37  99 E9        29.51F VSB 1/2 WCI  30
6HR MIN TEMP:  35; 6HR MAX TEMP:  37;

$$

LSZ147-162-211300-
LAKE SUPERIOR

STATION/POSITION TIME  TEMP    WIND        PRES    WAVE
                       AIR SEA DIR/SP/G            HT/PER
                 (UTC) (F)     (DEG/KT/KT) (MB)    (FT/S)
DEVILS ISLAND    1100   35     120/  7/  7 1001.3F
PORT WING        1140   33      CALM  /  1 1000.7S
SAXON HARBOR     1140   33      CALM  /  1 1001.0R
$$

LMZ867-665-643>646-211300-
LAKE MICHIGAN

STATION/POSITION TIME  TEMP    WIND        PRES    WAVE
                       AIR SEA DIR/SP/G            HT/PER
                 (UTC) (F)     (DEG/KT/KT) (MB)    (FT/S)
NORTHPORT PIER   1140   34     150/  5/  7 1003.7R
SISTER BAY       1135   35     170/  2/  6   N/A
KEWAUNEE LAKESHO 1148   36      50/  5/  6 1001.9S
SHEBOYGAN LAKESH 1200   36      2



USA.gov is the U.S. government's official web portal to all federal, state and local government web resources and services.